Location: Dead Woman Crossing
(43.5369°N, 106.3228°W)
Time: 22:41:29
(UTC+00:00)

X-37B - Pass Details

Date: 27 January 2022
Orbit: 329 x 342 km, 45.0° (Epoch: 18 May)

Event Time Altitude Azimuth Distance (km) Brightness Sun altitude
Rises 00:51:23 0° 198° (SSW) 2,105 4.9 -8.0°
Maximum altitude 00:55:21 11° 143° (SE) 1,240 2.9 -8.7°
Drops below altitude 10° 00:55:59 10° 130° (SE) 1,270 2.9 -8.8°
Enters shadow 00:56:57 - 113° (ESE) 1,418 3.0 -9.0°
